Regional Weather Roundup
Issued by NWS

Home | Current Version | Previous Version | Text Only | Print | Product List | Glossary Off
Versions: 1 2 3 4 5 6 7 8 9 10 11 12 13 14 15 16 17 18 19 20 21 22 23 24 25 26 27

000
ASUS45 KSLC 191610
RWRUT

UTAH REGIONAL WEATHER ROUNDUP
NATIONAL WEATHER SERVICE SALT LAKE CITY UT
1000 AM MDT WED JUL 19 2017

UTZ001>011-023>025-191700-

NORTHERN UTAH

CITY           SKY/WX    TMP DP  RH WIND       PRES   REMARKS
BRIGHAM CITY   PTSUNNY   81  48  31 CALM      30.08S
DUGWAY         PTSUNNY   88  49  25 S12       30.09S
HILL AFB       NOT AVBL
LOGAN          PTSUNNY   77  52  41 CALM      30.11S
OGDEN          PTSUNNY   88  56  33 S13       30.08R
SALT LAKE CITY PTSUNNY   88  57  34 S14G24    30.06R
TOOELE VALLEY  PTSUNNY   88  55  33 S21G30    30.07R
WENDOVER       MOSUNNY   90  27  10 E9        30.08R
HEBER CITY     CLOUDY    79  52  38 SW10      30.19S
WEST JORDAN    PTSUNNY   83  63  50 SE18G24   30.11S

$$

UTZ011>015-024>027-191700-

CENTRAL/NORTHEAST UTAH

CITY           SKY/WX    TMP DP  RH WIND       PRES   REMARKS
PROVO AIRPORT  CLOUDY    84  55  36 SE6       30.15R
MOAB/CANYONLAN MOSUNNY   90  53  28 SE14G20   30.14F
DELTA          CLOUDY    82  50  32 S21       30.16F
PRICE          CLOUDY    81  54  39 S7        30.26F
ROOSEVELT      CLOUDY    79  46  31 CALM      30.22S
VERNAL         CLOUDY    81  50  33 W5        30.20S

$$

UTZ013>016-019>022-027-191700-

SOUTHERN UTAH

CITY           SKY/WX    TMP DP  RH WIND       PRES   REMARKS
BRYCE CANYON   PTSUNNY   67  57  70 SE5       30.41R
CEDAR CITY     CLOUDY    74  60  61 W10       30.25S
MILFORD        CLOUDY    76  59  55 S18       30.19F
ST GEORGE      CLOUDY    83  60  45 VRB3      30.10F
HANKSVILLE     MOSUNNY   90  50  25 S13       30.16F
BLANDING       SUNNY     80  51  35 SE9       30.37F

$$

REGIONAL REPORTS     COLORADO/ARIZONA

CITY           SKY/WX    TMP DP  RH WIND       PRES   REMARKS
CRAIG, CO      CLOUDY    78  49  35 NE5       30.30F
GRAND JUNCTION MOSUNNY   85  52  32 SE14      30.19F
RIFLE, CO      SUNNY     77  51  40 CALM      30.26F
MONTROSE, CO   CLOUDY    80  51  36 VRB5      30.29F
CORTEZ, CO     SUNNY     83  53  35 SE10      30.29F
COLORADO CITY    N/A     72  63  73 CALM      30.26S
PAGE, AZ       SUNNY     81  60  48 VRB5      30.18S
GRAND CANYON   SUNNY     72  55  55 SW5       30.35F
KINGMAN, AZ    LGT RAIN  68  68 100 N6        30.19R
FLAGSTAFF, AZ  SUNNY     68  55  63 SW6       30.39S

$$

REGIONAL REPORTS    NEVADA/IDAHO/WYOMING

CITY           SKY/WX    TMP DP  RH WIND       PRES   REMARKS
LAS VEGAS, NV  CLOUDY    76  75  97 S7        30.07S
ELY, NY        MOSUNNY   80  48  32 S12G22    30.25S
ELKO, NV       SUNNY     74  22  14 CALM      30.18S
POCATELLO, ID  MOSUNNY   77  47  34 SW7       30.13S
FORT BRIDGER,    N/A     79  44  29 SE6       30.32S
EVANSTON, WY   CLOUDY    70  53  54 W5        30.31R
ROCK SPRINGS,  CLOUDY    75  41  29 S9        30.29S
KEMMERER, WY     N/A     73  45  35 SW3       30.33S

$$




USA.gov is the U.S. government's official web portal to all federal, state and local government web resources and services.